Torna al catalogo

FENGYUN 1C DEB

LostPO
NORAD 38812·DEBRIS·🇨🇳 China

Lanciato May 10, 1999 da Taiyuan Satellite Launch Center

Loading…

Prossimi Passaggi (prossime 24 ore)

TLE

ObsoletoSource: Space-Track

Epoca: Aug 12, 2026, 06:32 UTC

1 38812U 99025EVC 26224.27253131  .00000726  00000-0  70511-3 0  9999
2 38812  98.4197  40.9225 0258960 101.7907 261.2411 13.68206120495014

Traccia FENGYUN 1C DEB in tempo reale con AllMySat

Download on the App Store